#timestamp,LO_Frequency,Hit,StdDev 
1513717215.0,286047003.3,N
1513717215.9,286047003.3,N
1513717235.8,286047002.0,N
1513717255.6,286047002.6,N
1513717275.4,286046999.0,N
1513717295.3,286046997.8,N
1513717315.1,286046997.2,N
1513717316.0,286046997.2,N
1513717335.8,286046994.6,N
1513717355.7,286046995.0,N
1513717375.5,286046995.7,N
1513717395.3,286046998.0,N
1513717415.1,286046997.4,N
1513717435.9,286046996.1,N
1513717455.7,286046992.6,N
1513717475.5,286046995.3,N
1513717495.4,286046994.8,N
1513717515.2,286046988.5,N
1513717535.0,286046991.6,N
1513717535.9,286046991.6,N
1513717555.8,286046990.2,N
1513717575.6,286046994.4,N
1513717595.4,286046988.5,N
1513717615.3,286046987.4,N
1513717635.1,286046987.5,N
1513717636.0,286046987.5,N
1513717655.8,286046986.9,N
1513717675.7,286046985.8,N
1513717695.5,286046988.0,N
1513717715.3,286046986.0,N
1513717735.2,286046986.5,N
1513717755.9,286046987.6,N
1513717775.7,286046987.9,N
1513717795.5,286046989.4,N
1513717815.4,286046989.0,N
1513717835.2,286046991.9,N
1513717855.0,286046994.8,N
1513717855.9,286046994.8,N
1513717875.8,286046991.9,N
1513717895.6,286046991.7,N
1513717915.4,286046996.6,N
1513717935.3,286047003.7,N
1513717955.1,286047003.9,N
1513717956.0,286047003.9,N
1513717975.8,286047005.3,N
1513717995.7,286047006.5,N
1513718015.5,286047011.0,N
1513718035.3,286047012.5,N
1513718055.2,286047018.5,N
1513718075.9,286047015.4,N
1513718095.7,286047016.9,N
1513718115.5,286047019.4,N
1513718135.4,286047025.0,N
1513718155.2,286047022.6,N
1513718175.0,286047021.5,N
1513718175.9,286047021.5,N
1513718195.8,286047024.9,N
1513718215.6,286047024.5,N
1513718235.4,286047025.6,N
1513718255.3,286047026.3,N
1513718275.1,286047027.2,N
1513718295.8,286047029.0,N
1513718315.7,286047030.7,N
1513718335.5,286047033.7,N
1513718355.3,286047036.2,N
1513718375.2,286047035.3,N
1513718395.9,286047036.6,N
1513718415.7,286047037.3,N
1513718435.6,286047040.6,Y
1513718455.4,286047024.0,P
1513718475.2,286047024.3,P
1513718495.1,286047025.6,P
1513718496.0,286047025.6,Y
1513718515.8,286047004.0,P
1513718535.6,286047003.3,N
1513718555.5,286047003.1,N
1513718575.3,286047003.0,N
1513718595.1,286047004.5,N
1513718615.9,286047007.9,N
1513718635.7,286047007.5,N
1513718655.5,286047006.8,N
1513718675.3,286047010.3,N
1513718695.2,286047008.9,N
1513718715.0,286047009.1,N
1513718715.9,286047009.1,N
1513718735.7,286047006.4,N
1513718755.6,286047007.2,N
1513718775.4,286047007.1,N
1513718795.2,286047005.9,N
1513718815.1,286047004.3,N
1513718816.0,286047004.3,N
1513718835.8,286047007.4,N
1513718855.6,286047008.8,N
1513718875.5,286047010.2,N
1513718895.3,286047008.8,N
1513718915.1,286047008.8,N
1513718935.9,286047008.3,N
1513718955.7,286047006.6,N
1513718975.5,286047006.6,N
1513718995.3,286047006.6,N
1513719015.2,286047005.9,N
1513719035.0,286047003.2,N
1513719035.9,286047003.2,N
1513719055.7,286047005.3,N
1513719075.6,286047002.9,N
1513719095.4,286047006.0,N
1513719115.2,286047006.7,Y
1513719135.1,286047000.5,P
1513719136.0,286047000.5,N
1513719155.8,286046995.3,N
1513719175.6,286046997.0,N
1513719195.5,286046993.7,N
1513719215.3,286046995.2,N
1513719235.1,286046994.7,N
1513719255.9,286046992.0,N
1513719275.7,286046992.7,N
1513719295.5,286046990.4,N
1513719315.4,286046989.0,N
1513719335.2,286046984.9,Y
1513719355.0,286046988.3,P
1513719355.9,286046988.3,P
1513719375.8,286046985.4,P
1513719395.6,286046982.8,Y
1513719415.4,286046988.7,P
1513719435.3,286046988.8,P
1513719455.1,286046988.1,P
1513719456.0,286046988.1,Y
1513719475.8,286046994.8,P
1513719495.7,286046990.3,P
1513719515.5,286046991.3,P
1513719535.3,286046989.3,Y
1513719555.2,286046996.2,P
1513719575.9,286046990.5,P
1513719595.7,286046993.7,N
1513719615.6,286046990.2,Y
1513719635.4,286046997.2,P
1513719655.2,286046997.0,N
1513719675.1,286046997.6,N
1513719676.0,286046997.6,N
1513719695.8,286046994.1,Y
1513719715.6,286046997.2,P
1513719735.5,286046995.4,P
1513719755.3,286046993.5,P
1513719775.1,286046994.1,Y
1513719795.9,286046999.6,P
1513719815.7,286046996.6,N
1513719835.5,286046996.9,N
1513719855.4,286046999.3,N
1513719875.2,286047000.2,N
1513719895.0,286046999.4,N
1513719895.9,286046999.4,N
1513719915.8,286046999.3,N
1513719935.6,286046996.6,N
1513719955.4,286046995.0,Y
1513719975.3,286046998.2,P
1513719995.1,286046998.7,P
1513719996.0,286046998.7,P
1513720015.8,286046998.2,Y
1513720035.7,286047004.4,P
1513720055.5,286047005.7,N
1513720075.3,286047008.9,N
1513720095.2,286047008.0,N
1513720115.9,286047010.4,N
1513720135.7,286047006.8,N
1513720155.5,286047007.1,N
1513720175.4,286047005.5,N
1513720195.2,286047004.2,N
1513720215.0,286047002.4,N
1513720215.9,286047002.4,N
1513720235.8,286046998.7,N
1513720255.6,286046998.5,N
1513720275.4,286046999.4,N
1513720295.3,286046999.6,N
1513720315.1,286046994.9,N
1513720316.0,286046994.9,N
1513720335.8,286046997.3,N
1513720355.7,286046997.5,N
1513720375.5,286046995.1,N
1513720395.3,286046999.4,N
1513720415.2,286046999.5,N
1513720435.9,286046996.7,N
1513720455.7,286046994.5,N
1513720475.5,286046994.2,N
1513720495.4,286046996.2,N
1513720515.2,286046997.2,N
1513720535.0,286046994.9,N
1513720535.9,286046994.9,N
1513720555.8,286046993.9,N
1513720575.6,286046995.8,N
1513720595.4,286046998.6,N
1513720615.3,286046999.7,N
1513720635.1,286047000.7,N
1513720636.0,286047000.7,N
1513720655.8,286046998.7,N
1513720675.7,286046996.7,N
1513720695.5,286046997.3,N
1513720715.3,286046997.8,N
1513720735.2,286046998.0,N
1513720755.9,286046995.3,N
1513720775.7,286046993.7,Y
1513720795.6,286046995.0,P
